CW3175 Weather Reports


time (UTC)temp
F
wind
direction
speed
knots
gust
knots
rain 1hr
in
rain 24hr
in
rain mn
in
humidity
%
barometer
mb
20160730031654 75 41 0.9 7.8 0.00 0.03 0.00 77 1010.8
20160730030146 74 105 0.0 0.9 0.00 0.03 0.00 80 1010.8
20160730024643 74 40 0.0 6.1 0.00 0.03 0.00 85 1010.7
20160730023131 74 70 0.0 5.2 0.00 0.03 0.00 89 1010.8
20160730021632 74 98 0.0 3.5 0.00 0.03 0.00 89 1010.9
20160730020128 74 91 0.0 2.6 0.00 0.03 0.00 89 1011.0
20160730014619 73 71 0.0 5.2 0.00 0.03 0.00 89 1011.0
20160730013115 73 90 0.9 5.2 0.00 0.03 0.00 89 1011.1
20160730011602 74 58 0.0 5.2 0.00 0.03 0.00 90 1010.8
20160730010101 73 88 0.0 3.5 0.00 0.03 0.00 88 1010.7
20160730004547 73 46 0.0 3.5 0.00 0.03 0.00 88 1010.6
20160730003024 73 52 1.7 7.8 0.00 0.03 0.00 87 1010.3
20160730001525 74 67 0.0 4.3 0.00 0.03 0.00 85 1010.5
20160730000023 74 98 0.0 2.6 0.00 0.03 0.00 82 1010.3
20160729234509 74 71 0.0 0.9 0.00 0.03 0.03 81 1010.4
20160729232955 74 71 0.0 4.3 0.00 0.03 0.03 83 1010.2
20160729231455 74 95 0.0 3.5 0.00 0.04 0.03 85 1010.4
20160729225955 73 63 0.0 1.7 0.00 0.04 0.03 87 1010.1
20160729224441 73 101 0.0 3.5 0.00 0.04 0.03 87 1010.2
20160729222919 73 96 0.0 6.1 0.00 0.05 0.03 87 1010.5
20160729221409 73 98 0.9 6.1 0.00 0.07 0.03 89 1010.8
20160729215904 73 94 1.7 7.0 0.01 0.07 0.03 88 1010.6
20160729214401 75 46 2.6 11.3 0.01 0.07 0.03 93 1009.9
20160729212855 75 40 4.3 10.4 0.03 0.07 0.03 92 1010.1
20160729211352 75 48 5.2 12.2 0.03 0.07 0.03 91 1010.2
20160729205855 75 5 2.6 9.6 0.02 0.06 0.02 90 1010.4
20160729204347 75 32 1.7 7.0 0.01 0.05 0.02 89 1010.2
20160729202841 75 42 1.7 7.8 0.00 0.05 0.01 88 1010.6
20160729201341 76 36 3.5 9.6 0.00 0.05 0.00 87 1010.2
20160729195837 76 13 2.6 9.6 0.00 0.05 0.00 85 1010.2
20160729194339 76 18 1.7 8.7 0.00 0.16 0.00 85 1010.1
20160729192839 76 67 1.7 8.7 0.00 0.17 0.00 85 1009.7
20160729191338 76 51 2.6 10.4 0.00 0.17 0.00 84 1009.6
20160729185837 76 46 1.7 7.8 0.00 0.17 0.00 83 1009.6
20160729184336 76 34 4.3 13.0 0.00 0.17 0.00 84 1009.9
20160729182833 76 42 2.6 13.0 0.00 0.17 0.00 84 1010.1
20160729181333 76 0 3.5 9.6 0.00 0.17 0.00 83 1010.3
20160729175833 76 41 3.5 10.4 0.00 0.18 0.00 81 1010.4
20160729174327 77 34 1.7 7.8 0.00 0.18 0.00 80 1010.5
20160729172828 78 88 3.5 9.6 0.00 0.18 0.00 79 1010.5
20160729171306 78 18 3.5 11.3 0.00 0.18 0.00 76 1010.5
20160729165802 79 103 1.7 6.1 0.00 0.18 0.00 76 1010.5
20160729164301 79 85 2.6 7.8 0.00 0.19 0.00 78 1010.5
20160729162758 79 70 0.9 6.1 0.00 0.20 0.00 77 1010.7
20160729161251 79 50 0.9 5.2 0.00 0.21 0.00 76 1010.6
20160729155740 78 96 0.9 7.8 0.00 0.21 0.00 79 1010.6
20160729154240 78 43 0.9 5.2 0.00 0.21 0.00 78 1010.5
20160729152721 80 142 0.0 4.3 0.00 0.21 0.00 74 1010.5
20160729151220 79 63 0.0 4.3 0.00 0.21 0.00 74 1010.4
20160729145719 80 93 0.9 4.3 0.00 0.21 0.00 75 1010.5
20160729144220 79 115 0.0 3.5 0.00 0.21 0.00 77 1010.5
20160729142714 79 103 0.0 3.5 0.00 0.21 0.00 77 1010.5
20160729141209 78 61 0.0 4.3 0.00 0.21 0.00 79 1010.5
20160729135710 77 63 0.9 6.1 0.00 0.21 0.00 80 1010.4
20160729134208 77 42 0.9 5.2 0.00 0.21 0.00 81 1010.1
20160729132708 77 82 0.0 4.3 0.00 0.21 0.00 81 1010.2
20160729131136 76 78 0.9 6.1 0.00 0.21 0.00 82 1010.1
20160729125632 76 36 0.9 7.0 0.00 0.21 0.00 84 1010.1
20160729124132 76 36 0.9 7.0 0.00 0.21 0.00 84 1010.1
20160729122631 75 39 1.7 5.2 0.00 0.21 0.00 88 1010.0
20160729121123 75 53 0.0 5.2 0.00 0.21 0.00 90 1010.0
20160729115618 74 76 0.0 2.6 0.00 0.21 0.00 92 1010.0
20160729114119 74 77 0.0 2.6 0.00 0.21 0.00 93 1010.1
20160729112614 73 11 0.0 0.0 0.00 0.21 0.00 95 1010.0
20160729111055 72 11 0.0 0.0 0.00 0.21 0.00 96 1009.8
20160729105555 72 11 0.0 0.0 0.00 0.21 0.00 96 1009.8
20160729104049 72 11 0.0 0.0 0.00 0.21 0.00 96 1009.8
20160729102540 72 11 0.0 0.0 0.00 0.21 0.00 95 1009.6
20160729101037 72 11 0.0 0.0 0.00 0.21 0.00 95 1009.7
20160729095524 72 11 0.0 0.0 0.00 0.21 0.00 95 1009.7
20160729094012 72 11 0.0 0.0 0.00 0.21 0.00 95 1009.7
20160729092509 72 11 0.0 0.0 0.00 0.21 0.00 95 1009.6
20160729091009 73 11 0.0 0.0 0.00 0.21 0.00 94 1009.6
20160729085505 73 11 0.0 0.0 0.00 0.21 0.00 95 1009.7
20160729083957 72 11 0.0 0.0 0.00 0.21 0.00 94 1009.6
20160729082444 73 11 0.0 0.0 0.00 0.21 0.00 94 1009.6
20160729080919 72 11 0.0 0.0 0.00 0.21 0.00 94 1009.7
20160729075407 72 11 0.0 0.0 0.00 0.21 0.00 94 1010.0
20160729073839 73 11 0.0 0.0 0.00 0.21 0.00 94 1010.0
20160729072326 73 11 0.0 0.0 0.00 0.21 0.00 93 1010.0
20160729070822 73 11 0.0 0.0 0.00 0.21 0.00 93 1010.0
20160729065320 73 11 0.0 4.3 0.00 0.21 0.00 93 1010.0
20160729063812 73 342 0.0 4.3 0.00 0.21 0.00 93 1009.8
20160729062303 74 26 0.0 2.6 0.00 0.21 0.00 94 1009.8
20160729060754 75 76 0.0 0.0 0.00 0.21 0.00 95 1009.7
20160729055256 74 76 0.0 0.0 0.00 0.21 0.00 94 1009.6
20160729053750 75 76 0.0 0.0 0.00 0.21 0.00 94 1009.5
20160729052240 75 76 0.0 0.0 0.00 0.21 0.00 94 1009.6
20160729050727 75 76 0.0 0.0 0.00 0.21 0.00 93 1009.6
20160729045221 75 76 0.0 0.0 0.00 0.21 0.00 93 1009.9
20160729045215 75 76 0.0 0.0 0.00 0.21 0.00 93 1009.9
20160729042200 75 76 0.0 0.0 0.00 0.21 0.00 93 1009.8
20160729040656 76 76 0.0 0.0 0.00 0.21 0.00 92 1009.8
20160729035152 76 76 0.0 0.0 0.00 0.21 0.00 93 1009.7
20160729033648 75 76 0.0 0.0 0.00 0.21 0.00 92 1009.7